Mitchell, SD

11:45 AM CST on November 22, 2019 (GMT -0600)
Mitchell Municipal

Weather History for KMHE - September, 2019

Change the Weather History Date:

Sunday, September 8, 2019

  Actual Average Record
Temperature  
Mean Temperature 63 °F 66 °F  
Max Temperature 67 °F 79 °F 102 °F (1908)
Min Temperature 59 °F 53 °F 37 °F (1992)
Degree Days  
Heating Degree Days 2 3  
Month to date heating degree days 2 16  
Since 1 July heating degree days 11 33  
Cooling Degree Days 0 4  
Month to date cooling degree days 38 36  
Year to date cooling degree days 832 781  
Growing Degree Days 12 (Base 50)    
Moisture  
Dew Point 59 °F    
Average Humidity 87    
Maximum Humidity 93    
Minimum Humidity 81    
Precipitation  
Precipitation 0.04 in 0.07 in 2.15 in (1926)
Month to date precipitation 0.10 0.66  
Year to date precipitation 25.14 17.01  
Snow  
Snow 0.00 in - 0.00 in ()
Month to date snowfall 0.0  
Since 1 July snowfall 0.0  
Since 1 September snowfall 0.0  
Snow Depth 0.00 in    
Sea Level Pressure  
Sea Level Pressure 29.97 in    
Wind  
Wind Speed 10 mph (East)    
Max Wind Speed 17 mph    
Max Gust Speed 27 mph    
Visibility 9 miles    
Events Rain    
T = Trace of Precipitation, MM = Missing Value Source: NWS Daily Summary

Daily Weather History Graph

Daily Weather History Graph

Search for Another Location

Airport or City:

Astronomy

Sep. 08, 2019 Rise Set
Actual Time 7:03 AM CDT 7:55 PM CDT
Civil Twilight 6:34 AM CDT 8:24 PM CDT
Nautical Twilight 5:59 AM CDT 8:59 PM CDT
Astronomical Twilight 5:23 AM CDT 9:35 PM CDT
Moon 5:15 PM CDT (9/8) 1:34 AM CDT (9/8)
Length of Visible Light 13h 50m
Length of Day
12h 52m
Waxing Gibbous, 75% of the Moon is Illuminated
Sep 8
Waxing Gibbous
Sep 13
Full
Sep 21
Last Quarter
Sep 28
New
Oct 5
First Quarter

Hourly Weather History & Observations

Time (CDT) Temp. Dew Point Humidity Pressure Visibility Wind Dir Wind Speed Gust Speed Precip Events Conditions
12:08 AM 63.0 °F 59.0 °F 87% 29.95 in 10.0 mi ESE 12.7 mph - N/A   Overcast
12:22 AM 63.0 °F 59.0 °F 87% 29.95 in 10.0 mi ESE 9.2 mph - N/A   Overcast
12:53 AM 63.0 °F 57.9 °F 84% 29.94 in 10.0 mi ESE 11.5 mph 21.9 mph N/A   Overcast
1:53 AM 61.0 °F 57.0 °F 87% 29.95 in 8.0 mi ESE 11.5 mph 21.9 mph 0.00 in Rain Light Rain
2:53 AM 61.0 °F 55.9 °F 83% 29.95 in 10.0 mi SSE 13.8 mph 18.4 mph 0.00 in Rain Light Rain
3:45 AM 60.1 °F 55.9 °F 86% 29.96 in 10.0 mi East 8.1 mph - 0.01 in Rain Light Rain
3:53 AM 60.1 °F 55.9 °F 86% 29.96 in 10.0 mi East 8.1 mph - 0.02 in Rain Light Rain
4:53 AM 59.0 °F 57.0 °F 93% 29.96 in 8.0 mi East 8.1 mph - 0.01 in Rain Light Rain
5:53 AM 59.0 °F 57.0 °F 93% 29.95 in 5.0 mi ESE 10.4 mph - 0.00 in   Overcast
6:53 AM 59.0 °F 57.0 °F 93% 29.96 in 7.0 mi ESE 11.5 mph - N/A   Overcast
7:41 AM 59.0 °F 57.0 °F 93% 29.97 in 2.0 mi ESE 11.5 mph - 0.01 in Rain Light Rain
7:53 AM 60.1 °F 57.0 °F 90% 29.96 in 2.5 mi ESE 13.8 mph - 0.01 in Rain Light Rain
8:02 AM 60.1 °F 57.0 °F 90% 29.97 in 4.0 mi ESE 10.4 mph - 0.00 in   Overcast
8:53 AM 60.1 °F 57.0 °F 90% 29.97 in 10.0 mi ESE 11.5 mph - 0.00 in   Overcast
9:15 AM 60.1 °F 57.0 °F 90% 29.98 in 10.0 mi ESE 8.1 mph - N/A   Overcast
9:53 AM 60.1 °F 57.0 °F 90% 29.98 in 10.0 mi ESE 10.4 mph - N/A   Overcast
10:53 AM 62.1 °F 57.9 °F 86% 29.98 in 10.0 mi ESE 12.7 mph - N/A   Overcast
11:53 AM 63.0 °F 59.0 °F 87% 29.99 in 10.0 mi SE 11.5 mph - N/A   Overcast
12:53 PM 66.0 °F 60.1 °F 81% 29.98 in 10.0 mi East 6.9 mph - N/A   Overcast
1:24 PM 66.0 °F 60.1 °F 81% 29.99 in 10.0 mi East 8.1 mph - N/A   Overcast
1:51 PM 66.2 °F 60.8 °F 83% 29.99 in 10.0 mi ENE 5.8 mph - N/A   Overcast
1:53 PM 66.0 °F 60.1 °F 81% 29.98 in 10.0 mi ENE 6.9 mph - N/A   Overcast
2:21 PM 66.0 °F 60.1 °F 81% 29.98 in 10.0 mi ESE 8.1 mph - N/A   Overcast
2:53 PM 64.9 °F 60.1 °F 84% 29.97 in 10.0 mi East 8.1 mph - N/A   Overcast
3:22 PM 66.0 °F 60.1 °F 81% 29.98 in 10.0 mi East 6.9 mph - N/A   Overcast
3:53 PM 66.0 °F 60.1 °F 81% 29.98 in 10.0 mi ENE 6.9 mph - N/A   Overcast
4:10 PM 66.9 °F 61.0 °F 81% 29.98 in 10.0 mi East 6.9 mph - N/A   Overcast
4:18 PM 66.9 °F 60.1 °F 79% 29.98 in 10.0 mi East 4.6 mph - N/A   Overcast
4:53 PM 66.9 °F 60.1 °F 79% 29.97 in 10.0 mi East 5.8 mph - N/A   Overcast
5:23 PM 64.9 °F 61.0 °F 87% 29.97 in 10.0 mi NNE 6.9 mph - N/A   Overcast
5:36 PM 64.9 °F 61.0 °F 87% 29.96 in 10.0 mi NE 8.1 mph - N/A   Overcast
5:44 PM 64.9 °F 61.0 °F 87% 29.96 in 10.0 mi NE 10.4 mph - N/A   Overcast
5:53 PM 66.0 °F 61.0 °F 84% 29.96 in 10.0 mi NE 11.5 mph - N/A   Overcast
6:09 PM 66.0 °F 61.0 °F 84% 29.96 in 10.0 mi NE 12.7 mph - N/A   Overcast
6:53 PM 64.9 °F 60.1 °F 84% 29.95 in 10.0 mi ENE 11.5 mph - N/A   Mostly Cloudy
7:19 PM 64.9 °F 60.1 °F 84% 29.96 in 10.0 mi East 9.2 mph - N/A   Overcast
7:53 PM 64.9 °F 60.1 °F 84% 29.96 in 10.0 mi East 9.2 mph - N/A   Overcast
8:01 PM 64.0 °F 60.1 °F 87% 29.97 in 10.0 mi East 10.4 mph - N/A   Overcast
8:53 PM 63.0 °F 59.0 °F 87% 29.99 in 10.0 mi ESE 11.5 mph 21.9 mph N/A   Overcast
9:22 PM 64.0 °F 59.0 °F 84% 30.00 in 10.0 mi ESE 11.5 mph - N/A   Overcast
9:53 PM 64.0 °F 60.1 °F 87% 30.00 in 10.0 mi SE 15.0 mph - N/A   Overcast
10:53 PM 64.0 °F 60.1 °F 87% 30.00 in 10.0 mi ESE 9.2 mph - N/A   Overcast
11:53 PM 64.0 °F 60.1 °F 87% 29.99 in 10.0 mi ESE 5.8 mph - N/A   Overcast